Regional Weather Roundup
Issued by NWS

Home | Current Version | Previous Version | Graphics & Text | Print | Product List | Glossary On
Versions: 1 2 3 4 5 6 7 8 9 10 11 12 13 14 15 16 17 18 19 20 21 22 23 24 25 26 27 28 29 30 31 32 33 34 35 36 37 38 39 40 41 42 43 44 45 46 47 48 49 50
726
ASUS43 KTOP 300359
RWRKS

WEATHER ROUNDUP FOR KANSAS
NATIONAL WEATHER SERVICE GOODLAND KS
1100 PM CDT WED MAR 29 2017

NOTE:  "FAIR" INDICATES FEW OR NO CLOUDS BELOW 12,000 FEET WITH NO
SIGNIFICANT WEATHER AND/OR OBSTRUCTIONS TO VISIBILITY.

KSZ001>006-013>018-027>032-041>047-300500-
NORTHWEST KANSAS

CITY           SKY/WX    TMP DP  RH WIND       PRES   REMARKS
GOODLAND       CLEAR     37  35  92 NW14      29.90F WCI  28
HAYS             N/A     40  37  89 N26G35    29.79F WCI  29
HILL CITY      LGT RAIN  40  39  97 N15       29.85F WCI  32
RUSSELL        CLOUDY    40  39  97 N23       29.75F WCI  30
$$

KSZ061>065-074>080-084>089-300500-
SOUTHWEST KANSAS

CITY           SKY/WX    TMP DP  RH WIND       PRES   REMARKS
DODGE CITY     CLOUDY    39  37  92 N20G29    29.82F WCI  29
ELKHART          N/A     41  32  71 NW12        N/A
GARDEN CITY    MOCLDY    42  39  89 N21       29.86F
GREAT BEND     LGT RAIN  40  39  97 NW23G30   29.75S FOG     WCI  30
LIBERAL        PTCLDY    43  37  81 NW10      29.89F
$$

KSZ066>073-081>083-090>101-300500-
SOUTHEAST KANSAS

CITY           SKY/WX    TMP DP  RH WIND       PRES   REMARKS
CHANUTE        PTCLDY    51  45  79 S15       29.63F
COFFEYVILLE    MOCLDY    51  45  79 SW12      29.66F
HUTCHINSON     CLOUDY    43  41  93 NW18G26   29.67S FOG
MEDICINE LODGE   N/A     42  37  82 NW16G31   29.74R
PARSONS        MOCLDY    51  45  79 SW14G22   29.65F
WICHITA INTL   CLOUDY    44  44 100 NW20      29.65R
WICHITA JABRA  CLOUDY    44  44 100 NW14      29.63R
WICHITA MCCONL LGT RAIN  45  43  93 NW17G25   29.63R FOG
WINFIELD       LGT RAIN  46  44  93 W15       29.67R FOG
$$

KSZ007>012-019>026-033>040-048>060-102>105-300500-
NORTHEAST KANSAS

CITY           SKY/WX    TMP DP  RH WIND       PRES   REMARKS
CONCORDIA      LGT RAIN  42  42 100 N17G24    29.70F
EMPORIA        CLOUDY    51  47  86 S13       29.59F
LAWRENCE       MOCLDY    55  55 100 NE13      29.62F FOG
MANHATTAN      LGT RAIN  48  47  96 NE10      29.60F
OLATHE IND     CLOUDY    56  53  90 E6        29.64S
OLATHE EXE     CLOUDY    53  53 100 E12       29.64F FOG
SALINA         RAIN      45  42  89 NW20      29.67S
TOPEKA BILLARD CLOUDY    55  55 100 E9        29.60F
TOPEKA FORBES  CLOUDY    56  54  93 S6        29.60F
$$




USA.gov is the U.S. government's official web portal to all federal, state and local government web resources and services.